| time (UTC) | temp F | wind direction | speed MPH | gust MPH | rain 1hr in | rain 24hr in | rain mn in | humidity % | barometer mb |
| 20260506082024 | 28 | 278 | 0.0 | 2.0 | 0.00 | 0.00 | 0.00 | 54 | 1020.1 |
| 20260506081534 | 28 | 278 | 0.0 | 2.0 | 0.00 | 0.00 | 0.00 | 53 | 1020.1 |
| 20260506081022 | 28 | 278 | 0.0 | 2.0 | 0.00 | 0.00 | 0.00 | 53 | 1020.1 |
| 20260506080522 | 28 | 278 | 0.0 | 2.0 | 0.00 | 0.00 | 0.00 | 53 | 1020.1 |
| 20260506073019 | 29 | 279 | 0.0 | 3.0 | 0.00 | 0.00 | 0.00 | 54 | 1020.1 |
| 20260506072517 | 29 | 279 | 0.0 | 1.0 | 0.00 | 0.00 | 0.00 | 54 | 1020.0 |
| 20260506072017 | 29 | 279 | 0.0 | 2.0 | 0.00 | 0.00 | 0.00 | 53 | 1020.0 |
| 20260506071517 | 30 | 279 | 0.0 | 2.0 | 0.00 | 0.00 | 0.00 | 53 | 1020.1 |
| 20260506071015 | 30 | 279 | 0.0 | 3.0 | 0.00 | 0.00 | 0.00 | 53 | 1020.1 |
| 20260506070515 | 30 | 279 | 0.0 | 3.0 | 0.00 | 0.00 | 0.00 | 53 | 1020.1 |
| 20260506062510 | 30 | 272 | 0.0 | 2.0 | 0.00 | 0.00 | 0.00 | 56 | 1019.8 |
| 20260506062010 | 30 | 272 | 0.0 | 2.0 | 0.00 | 0.00 | 0.00 | 56 | 1019.8 |
| 20260506061510 | 30 | 272 | 0.0 | 2.0 | 0.00 | 0.00 | 0.00 | 56 | 1020.0 |
| 20260506061009 | 30 | 272 | 0.0 | 2.0 | 0.00 | 0.00 | 0.00 | 56 | 1019.8 |
| 20260506060510 | 30 | 272 | 0.0 | 3.0 | 0.00 | 0.00 | 0.00 | 56 | 1019.9 |
| 20260506051006 | 30 | 280 | 1.0 | 4.0 | 0.00 | 0.00 | 0.00 | 56 | 1019.6 |
| 20260506050505 | 30 | 279 | 2.0 | 4.0 | 0.00 | 0.00 | 0.00 | 55 | 1019.7 |
| 20260506045005 | 31 | 277 | 2.0 | 4.0 | 0.00 | 0.00 | 0.00 | 54 | 1019.5 |
| 20260506044504 | 31 | 271 | 2.0 | 4.0 | 0.00 | 0.00 | 0.00 | 55 | 1019.6 |
| 20260506044006 | 31 | 276 | 1.0 | 4.0 | 0.00 | 0.00 | 0.00 | 55 | 1019.5 |
| 20260506043003 | 31 | 298 | 1.0 | 2.0 | 0.00 | 0.00 | 0.00 | 55 | 1019.5 |
| 20260506042504 | 31 | 307 | 1.0 | 2.0 | 0.00 | 0.00 | 0.00 | 55 | 1019.6 |
| 20260506042003 | 31 | 307 | 1.0 | 2.0 | 0.00 | 0.00 | 0.00 | 55 | 1019.5 |
| 20260506041503 | 31 | 307 | 1.0 | 3.0 | 0.00 | 0.00 | 0.00 | 55 | 1019.7 |
| 20260506041002 | 31 | 307 | 1.0 | 3.0 | 0.00 | 0.00 | 0.00 | 55 | 1019.4 |
| 20260506040502 | 31 | 307 | 1.0 | 2.0 | 0.00 | 0.00 | 0.00 | 55 | 1019.6 |
| 20260506040001 | 31 | 307 | 1.0 | 3.0 | 0.00 | 0.00 | 0.00 | 54 | 1019.6 |
| 20260506035501 | 31 | 307 | 1.0 | 3.0 | 0.00 | 0.00 | 0.00 | 53 | 1019.6 |
| 20260506035100 | 32 | 307 | 1.0 | 2.0 | 0.00 | 0.00 | 0.00 | 53 | 1019.6 |
| 20260506034559 | 32 | 307 | 1.0 | 3.0 | 0.00 | 0.00 | 0.00 | 53 | 1019.6 |
| 20260506034059 | 32 | 307 | 2.0 | 3.0 | 0.00 | 0.00 | 0.00 | 52 | 1019.5 |
| 20260506033101 | 33 | 307 | 2.0 | 3.0 | 0.00 | 0.00 | 0.00 | 51 | 1019.6 |
| 20260506032556 | 33 | 307 | 1.0 | 3.0 | 0.00 | 0.00 | 0.00 | 51 | 1019.6 |
| 20260506032055 | 33 | 307 | 1.0 | 3.0 | 0.00 | 0.00 | 0.00 | 50 | 1019.4 |
| 20260506031556 | 33 | 307 | 1.0 | 3.0 | 0.00 | 0.00 | 0.00 | 49 | 1019.4 |
| 20260506031054 | 34 | 307 | 2.0 | 3.0 | 0.00 | 0.00 | 0.00 | 48 | 1019.3 |
| 20260506030552 | 35 | 308 | 0.0 | 3.0 | 0.00 | 0.00 | 0.00 | 47 | 1019.3 |
| 20260506030051 | 35 | 309 | 0.0 | 0.0 | 0.00 | 0.00 | 0.00 | 47 | 1019.3 |
| 20260506025551 | 36 | 309 | 0.0 | 0.0 | 0.00 | 0.00 | 0.00 | 47 | 1019.1 |
| 20260506025053 | 36 | 309 | 0.0 | 1.0 | 0.00 | 0.00 | 0.00 | 46 | 1019.2 |
| 20260506024549 | 37 | 309 | 0.0 | 3.0 | 0.00 | 0.00 | 0.00 | 46 | 1019.2 |
| 20260506024151 | 37 | 309 | 0.0 | 3.0 | 0.00 | 0.00 | 0.00 | 45 | 1019.1 |
| 20260506023104 | 38 | 309 | 0.0 | 0.0 | 0.00 | 0.00 | 0.00 | 44 | 1019.1 |
| 20260506022550 | 38 | 309 | 0.0 | 4.0 | 0.00 | 0.00 | 0.00 | 44 | 1019.0 |
| 20260506022050 | 38 | 309 | 0.0 | 4.0 | 0.00 | 0.00 | 0.00 | 43 | 1018.9 |
| 20260506021609 | 39 | 340 | 0.0 | 3.0 | 0.00 | 0.00 | 0.00 | 43 | 1019.0 |
| 20260506021051 | 39 | 340 | 0.0 | 2.0 | 0.00 | 0.00 | 0.00 | 42 | 1018.9 |
| 20260506020549 | 40 | 340 | 0.0 | 2.0 | 0.00 | 0.00 | 0.00 | 42 | 1019.0 |
| 20260506020049 | 40 | 340 | 0.0 | 2.0 | 0.00 | 0.00 | 0.00 | 41 | 1018.8 |
| 20260506015549 | 41 | 351 | 0.0 | 1.0 | 0.00 | 0.00 | 0.00 | 40 | 1018.8 |
| 20260506015051 | 41 | 351 | 0.0 | 4.0 | 0.00 | 0.00 | 0.00 | 40 | 1018.7 |
| 20260506014547 | 42 | 355 | 0.0 | 4.0 | 0.00 | 0.00 | 0.00 | 39 | 1018.7 |
| 20260506014050 | 43 | 349 | 2.0 | 5.0 | 0.00 | 0.00 | 0.00 | 39 | 1018.7 |
| 20260506013057 | 44 | 337 | 2.0 | 8.0 | 0.00 | 0.00 | 0.00 | 38 | 1018.6 |
| 20260506012546 | 44 | 319 | 1.0 | 8.0 | 0.00 | 0.00 | 0.00 | 38 | 1018.6 |
| 20260506012047 | 44 | 355 | 3.0 | 8.0 | 0.00 | 0.00 | 0.00 | 38 | 1018.6 |
| 20260506011559 | 44 | 355 | 4.0 | 9.0 | 0.00 | 0.00 | 0.00 | 38 | 1018.6 |
| 20260506011044 | 44 | 9 | 4.0 | 11.0 | 0.00 | 0.00 | 0.00 | 37 | 1018.5 |
| 20260506010545 | 45 | 5 | 4.0 | 11.0 | 0.00 | 0.00 | 0.00 | 36 | 1018.4 |
| 20260506010048 | 45 | 348 | 3.0 | 8.0 | 0.00 | 0.00 | 0.00 | 36 | 1018.3 |
| 20260506005548 | 45 | 26 | 3.0 | 8.0 | 0.00 | 0.00 | 0.00 | 36 | 1018.3 |
| 20260506005044 | 45 | 24 | 2.0 | 6.0 | 0.00 | 0.00 | 0.00 | 37 | 1018.3 |
| 20260506004544 | 45 | 290 | 2.0 | 10.0 | 0.00 | 0.00 | 0.00 | 37 | 1018.4 |
| 20260506004043 | 45 | 304 | 5.0 | 10.0 | 0.00 | 0.00 | 0.00 | 37 | 1018.3 |
| 20260506003043 | 45 | 360 | 4.0 | 9.0 | 0.00 | 0.00 | 0.00 | 36 | 1018.2 |
| 20260506002542 | 45 | 360 | 5.0 | 11.0 | 0.00 | 0.00 | 0.00 | 36 | 1018.2 |
| 20260506002042 | 45 | 12 | 4.0 | 11.0 | 0.00 | 0.00 | 0.00 | 36 | 1018.1 |
| 20260506001547 | 45 | 312 | 3.0 | 10.0 | 0.00 | 0.00 | 0.00 | 36 | 1018.2 |
| 20260506001042 | 45 | 307 | 3.0 | 10.0 | 0.00 | 0.00 | 0.00 | 35 | 1018.3 |
| 20260506000544 | 45 | 13 | 3.0 | 11.0 | 0.00 | 0.00 | 0.00 | 35 | 1018.2 |
| 20260506000047 | 45 | 300 | 5.0 | 12.0 | 0.00 | 0.00 | 0.00 | 35 | 1018.1 |
| 20260505235544 | 45 | 317 | 3.0 | 12.0 | 0.00 | 0.00 | 0.00 | 35 | 1018.1 |
| 20260505235042 | 46 | 302 | 3.0 | 8.0 | 0.00 | 0.00 | 0.00 | 36 | 1018.1 |
| 20260505234541 | 46 | 298 | 1.0 | 9.0 | 0.00 | 0.00 | 0.00 | 35 | 1018.1 |
| 20260505234041 | 46 | 355 | 4.0 | 11.0 | 0.00 | 0.00 | 0.00 | 35 | 1018.0 |
| 20260505233145 | 46 | 296 | 4.0 | 10.0 | 0.00 | 0.00 | 0.00 | 35 | 1017.9 |
| 20260505232545 | 46 | 302 | 2.0 | 10.0 | 0.00 | 0.00 | 0.00 | 35 | 1017.8 |
| 20260505232048 | 46 | 360 | 2.0 | 9.0 | 0.00 | 0.00 | 0.00 | 36 | 1018.0 |
| 20260505231603 | 46 | 292 | 4.0 | 9.0 | 0.00 | 0.00 | 0.00 | 35 | 1017.7 |
| 20260505231044 | 46 | 360 | 3.0 | 9.0 | 0.00 | 0.00 | 0.00 | 36 | 1018.0 |
| 20260505230544 | 46 | 30 | 3.0 | 15.0 | 0.00 | 0.00 | 0.00 | 36 | 1017.8 |
| 20260505230045 | 46 | 296 | 3.0 | 19.0 | 0.00 | 0.00 | 0.00 | 35 | 1017.9 |
| 20260505225545 | 46 | 324 | 2.0 | 10.0 | 0.00 | 0.00 | 0.00 | 36 | 1017.8 |
| 20260505225045 | 46 | 34 | 5.0 | 10.0 | 0.00 | 0.00 | 0.00 | 35 | 1017.8 |
| 20260505224545 | 46 | 26 | 3.0 | 10.0 | 0.00 | 0.00 | 0.00 | 35 | 1017.9 |
| 20260505224044 | 46 | 334 | 6.0 | 13.0 | 0.00 | 0.00 | 0.00 | 35 | 1017.8 |
| 20260505223037 | 46 | 317 | 4.0 | 11.0 | 0.00 | 0.00 | 0.00 | 36 | 1017.8 |
| 20260505222537 | 46 | 303 | 5.0 | 11.0 | 0.00 | 0.00 | 0.00 | 36 | 1017.9 |
| 20260505222037 | 46 | 323 | 4.0 | 13.0 | 0.00 | 0.00 | 0.00 | 36 | 1017.8 |
| 20260505221537 | 46 | 282 | 5.0 | 13.0 | 0.00 | 0.00 | 0.00 | 35 | 1017.9 |
| 20260505221036 | 46 | 292 | 3.0 | 14.0 | 0.00 | 0.00 | 0.00 | 35 | 1017.9 |
| 20260505220536 | 46 | 12 | 3.0 | 14.0 | 0.00 | 0.00 | 0.00 | 37 | 1017.8 |
| 20260505220036 | 46 | 300 | 4.0 | 12.0 | 0.00 | 0.00 | 0.00 | 36 | 1017.8 |
| 20260505215536 | 46 | 309 | 3.0 | 12.0 | 0.00 | 0.00 | 0.00 | 35 | 1017.7 |
| 20260505215036 | 47 | 308 | 4.0 | 9.0 | 0.00 | 0.00 | 0.00 | 35 | 1017.9 |
| 20260505214549 | 47 | 306 | 3.0 | 11.0 | 0.00 | 0.00 | 0.00 | 35 | 1017.7 |
| 20260505214036 | 46 | 308 | 5.0 | 14.0 | 0.00 | 0.00 | 0.00 | 36 | 1017.8 |
| 20260505213040 | 47 | 323 | 4.0 | 10.0 | 0.00 | 0.00 | 0.00 | 36 | 1017.9 |
| 20260505212537 | 46 | 321 | 4.0 | 13.0 | 0.00 | 0.00 | 0.00 | 36 | 1017.9 |
| 20260505212037 | 46 | 324 | 5.0 | 14.0 | 0.00 | 0.00 | 0.00 | 35 | 1018.0 |
| 20260505211537 | 46 | 36 | 7.0 | 14.0 | 0.00 | 0.00 | 0.00 | 35 | 1017.9 |
| 20260505211037 | 46 | 312 | 5.0 | 13.0 | 0.00 | 0.00 | 0.00 | 35 | 1017.9 |
| 20260505210536 | 47 | 316 | 3.0 | 10.0 | 0.00 | 0.00 | 0.00 | 35 | 1017.9 |
| 20260505210036 | 46 | 346 | 3.0 | 11.0 | 0.00 | 0.00 | 0.00 | 36 | 1017.9 |
| 20260505205638 | 47 | 301 | 5.0 | 11.0 | 0.00 | 0.00 | 0.00 | 34 | 1018.1 |
| 20260505205035 | 47 | 5 | 4.0 | 15.0 | 0.00 | 0.00 | 0.00 | 36 | 1018.1 |
| 20260505204535 | 46 | 315 | 5.0 | 15.0 | 0.00 | 0.00 | 0.00 | 36 | 1018.2 |
| 20260505204035 | 45 | 11 | 4.0 | 11.0 | 0.00 | 0.00 | 0.00 | 37 | 1018.0 |
| 20260505203052 | 46 | 297 | 9.0 | 14.0 | 0.00 | 0.00 | 0.00 | 35 | 1018.1 |
| 20260505202534 | 46 | 329 | 5.0 | 13.0 | 0.00 | 0.00 | 0.00 | 36 | 1018.1 |
| 20260505202035 | 46 | 308 | 5.0 | 11.0 | 0.00 | 0.00 | 0.00 | 35 | 1018.1 |
| 20260505201541 | 47 | 319 | 5.0 | 14.0 | 0.00 | 0.00 | 0.00 | 34 | 1018.2 |
| 20260505201033 | 47 | 5 | 5.0 | 14.0 | 0.00 | 0.00 | 0.00 | 36 | 1018.1 |
| 20260505200534 | 47 | 306 | 7.0 | 14.0 | 0.00 | 0.00 | 0.00 | 35 | 1018.2 |
| 20260505200034 | 46 | 360 | 4.0 | 14.0 | 0.00 | 0.00 | 0.00 | 38 | 1018.2 |
| 20260505195535 | 45 | 298 | 5.0 | 18.0 | 0.00 | 0.00 | 0.00 | 36 | 1018.2 |
| 20260505195032 | 46 | 303 | 5.0 | 18.0 | 0.00 | 0.00 | 0.00 | 35 | 1018.2 |
| 20260505194532 | 45 | 279 | 5.0 | 14.0 | 0.00 | 0.00 | 0.00 | 36 | 1018.2 |
| 20260505194033 | 46 | 321 | 5.0 | 14.0 | 0.00 | 0.00 | 0.00 | 36 | 1018.3 |
| 20260505193035 | 47 | 321 | 7.0 | 13.0 | 0.00 | 0.00 | 0.00 | 35 | 1018.0 |
| 20260505192535 | 47 | 13 | 5.0 | 12.0 | 0.00 | 0.00 | 0.00 | 37 | 1018.1 |
| 20260505192040 | 47 | 13 | 3.0 | 11.0 | 0.00 | 0.00 | 0.00 | 35 | 1018.1 |
| 20260505191535 | 45 | 82 | 3.0 | 11.0 | 0.00 | 0.00 | 0.00 | 36 | 1017.9 |
| 20260505191035 | 46 | 330 | 5.0 | 15.0 | 0.00 | 0.00 | 0.00 | 34 | 1017.9 |
| 20260505190534 | 47 | 336 | 6.0 | 15.0 | 0.00 | 0.00 | 0.00 | 34 | 1018.0 |
| 20260505190035 | 47 | 291 | 5.0 | 13.0 | 0.00 | 0.00 | 0.00 | 35 | 1018.0 |
| 20260505185532 | 47 | 294 | 5.0 | 11.0 | 0.00 | 0.00 | 0.00 | 35 | 1017.9 |
| 20260505185032 | 46 | 355 | 5.0 | 14.0 | 0.00 | 0.00 | 0.00 | 34 | 1018.0 |
| 20260505184535 | 45 | 20 | 7.0 | 14.0 | 0.00 | 0.00 | 0.00 | 36 | 1017.9 |
| 20260505184031 | 45 | 341 | 6.0 | 19.0 | 0.00 | 0.00 | 0.00 | 35 | 1018.1 |
| 20260505183026 | 45 | 321 | 5.0 | 13.0 | 0.00 | 0.00 | 0.00 | 35 | 1017.9 |
| 20260505182524 | 45 | 5 | 6.0 | 13.0 | 0.00 | 0.00 | 0.00 | 36 | 1017.7 |
| 20260505182024 | 44 | 320 | 6.0 | 14.0 | 0.00 | 0.00 | 0.00 | 37 | 1018.0 |
| 20260505181525 | 44 | 319 | 4.0 | 14.0 | 0.00 | 0.00 | 0.00 | 37 | 1017.9 |
| 20260505181024 | 44 | 350 | 6.0 | 12.0 | 0.00 | 0.00 | 0.00 | 36 | 1017.7 |
| 20260505180523 | 45 | 298 | 6.0 | 14.0 | 0.00 | 0.00 | 0.00 | 35 | 1017.9 |
| 20260505180022 | 44 | 334 | 7.0 | 15.0 | 0.00 | 0.00 | 0.00 | 37 | 1017.9 |
| 20260505175522 | 44 | 346 | 8.0 | 15.0 | 0.00 | 0.00 | 0.00 | 37 | 1017.9 |
| 20260505175022 | 43 | 348 | 4.0 | 11.0 | 0.00 | 0.00 | 0.00 | 38 | 1017.9 |
| 20260505174528 | 43 | 23 | 4.0 | 16.0 | 0.00 | 0.00 | 0.00 | 39 | 1018.1 |
| 20260505174021 | 42 | 311 | 6.0 | 16.0 | 0.00 | 0.00 | 0.00 | 37 | 1018.2 |
| 20260505173020 | 42 | 330 | 5.0 | 14.0 | 0.00 | 0.00 | 0.00 | 42 | 1018.2 |
| 20260505172519 | 42 | 307 | 7.0 | 13.0 | 0.00 | 0.00 | 0.00 | 41 | 1018.2 |
| 20260505172020 | 41 | 13 | 4.0 | 13.0 | 0.00 | 0.00 | 0.00 | 43 | 1018.2 |
| 20260505171519 | 41 | 349 | 4.0 | 14.0 | 0.00 | 0.00 | 0.00 | 43 | 1018.2 |
| 20260505171020 | 41 | 306 | 7.0 | 14.0 | 0.00 | 0.00 | 0.00 | 43 | 1018.3 |
| 20260505170519 | 42 | 319 | 5.0 | 13.0 | 0.00 | 0.00 | 0.00 | 42 | 1018.3 |
| 20260505170020 | 43 | 339 | 4.0 | 11.0 | 0.00 | 0.00 | 0.00 | 42 | 1018.2 |
| 20260505165518 | 44 | 22 | 7.0 | 11.0 | 0.00 | 0.00 | 0.00 | 41 | 1018.2 |
| 20260505165017 | 43 | 12 | 4.0 | 11.0 | 0.00 | 0.00 | 0.00 | 44 | 1018.2 |
| 20260505164515 | 42 | 360 | 5.0 | 10.0 | 0.00 | 0.00 | 0.00 | 48 | 1018.2 |
| 20260505164016 | 40 | 25 | 3.0 | 15.0 | 0.00 | 0.00 | 0.00 | 49 | 1018.2 |
| 20260505163026 | 41 | 360 | 6.0 | 11.0 | 0.00 | 0.00 | 0.00 | 48 | 1018.1 |
| 20260505162520 | 41 | 16 | 4.0 | 9.0 | 0.00 | 0.00 | 0.00 | 47 | 1018.1 |
| 20260505162019 | 40 | 12 | 3.0 | 14.0 | 0.00 | 0.00 | 0.00 | 50 | 1018.1 |
| 20260505161518 | 40 | 5 | 4.0 | 14.0 | 0.00 | 0.00 | 0.00 | 49 | 1018.1 |
| 20260505161018 | 40 | 355 | 4.0 | 9.0 | 0.00 | 0.00 | 0.00 | 48 | 1018.1 |
| 20260505160517 | 40 | 349 | 3.0 | 11.0 | 0.00 | 0.00 | 0.00 | 49 | 1018.2 |
| 20260505153012 | 39 | 355 | 3.0 | 12.0 | 0.00 | 0.00 | 0.00 | 52 | 1018.1 |
| 20260505152512 | 39 | 360 | 4.0 | 12.0 | 0.00 | 0.00 | 0.00 | 51 | 1018.0 |
| 20260505152015 | 39 | 9 | 5.0 | 12.0 | 0.00 | 0.00 | 0.00 | 51 | 1017.9 |
| 20260505151517 | 39 | 323 | 5.0 | 12.0 | 0.00 | 0.00 | 0.00 | 50 | 1017.9 |
| 20260505151011 | 39 | 332 | 2.0 | 10.0 | 0.00 | 0.00 | 0.00 | 51 | 1017.9 |
| 20260505150510 | 39 | 304 | 3.0 | 9.0 | 0.00 | 0.00 | 0.00 | 53 | 1017.8 |
| 20260505140502 | 38 | 340 | 2.0 | 6.0 | 0.00 | 0.00 | 0.00 | 56 | 1017.6 |
| 20260505124554 | 36 | 300 | 2.0 | 7.0 | 0.00 | 0.00 | 0.00 | 63 | 1016.9 |
| 20260505124051 | 36 | 284 | 3.0 | 6.0 | 0.00 | 0.00 | 0.00 | 63 | 1016.7 |
| 20260505123055 | 36 | 301 | 1.0 | 4.0 | 0.00 | 0.00 | 0.00 | 63 | 1016.7 |
| 20260505122556 | 36 | 293 | 1.0 | 5.0 | 0.00 | 0.00 | 0.00 | 63 | 1016.5 |
| 20260505122053 | 36 | 313 | 1.0 | 4.0 | 0.00 | 0.00 | 0.00 | 63 | 1016.6 |
| 20260505121612 | 36 | 318 | 1.0 | 5.0 | 0.00 | 0.00 | 0.00 | 63 | 1016.6 |
| 20260505121052 | 36 | 302 | 1.0 | 5.0 | 0.00 | 0.00 | 0.00 | 63 | 1016.6 |
| 20260505120552 | 36 | 301 | 2.0 | 6.0 | 0.00 | 0.00 | 0.00 | 62 | 1016.4 |
| 20260505120054 | 36 | 317 | 2.0 | 8.0 | 0.00 | 0.00 | 0.00 | 62 | 1016.4 |
| 20260505115555 | 36 | 304 | 1.0 | 8.0 | 0.00 | 0.00 | 0.00 | 62 | 1016.5 |
| 20260505115052 | 35 | 311 | 1.0 | 4.0 | 0.00 | 0.00 | 0.00 | 62 | 1016.4 |
| 20260505114550 | 35 | 309 | 1.0 | 4.0 | 0.00 | 0.00 | 0.00 | 62 | 1016.4 |
| 20260505114050 | 35 | 311 | 1.0 | 5.0 | 0.00 | 0.00 | 0.00 | 62 | 1016.3 |
| 20260505113047 | 35 | 317 | 2.0 | 5.0 | 0.00 | 0.00 | 0.00 | 62 | 1016.2 |
| 20260505112547 | 35 | 278 | 2.0 | 4.0 | 0.00 | 0.00 | 0.00 | 62 | 1016.2 |
| 20260505112046 | 35 | 301 | 2.0 | 4.0 | 0.00 | 0.00 | 0.00 | 62 | 1016.1 |
| 20260505111547 | 35 | 290 | 2.0 | 4.0 | 0.00 | 0.00 | 0.00 | 62 | 1015.8 |
| 20260505111046 | 35 | 288 | 1.0 | 4.0 | 0.00 | 0.00 | 0.00 | 62 | 1016.1 |
| 20260505110545 | 35 | 275 | 1.0 | 7.0 | 0.00 | 0.00 | 0.00 | 62 | 1016.1 |
| 20260505102039 | 35 | 284 | 2.0 | 3.0 | 0.00 | 0.00 | 0.00 | 60 | 1016.0 |
| 20260505101542 | 36 | 298 | 1.0 | 3.0 | 0.00 | 0.00 | 0.00 | 59 | 1015.8 |
| 20260505101037 | 36 | 302 | 1.0 | 4.0 | 0.00 | 0.00 | 0.00 | 58 | 1015.8 |
| 20260505100538 | 36 | 304 | 1.0 | 4.0 | 0.00 | 0.00 | 0.00 | 58 | 1015.7 |
| 20260505100036 | 36 | 302 | 2.0 | 4.0 | 0.00 | 0.00 | 0.00 | 58 | 1015.9 |
| 20260505095536 | 36 | 297 | 2.0 | 4.0 | 0.00 | 0.00 | 0.00 | 57 | 1015.9 |
| 20260505095036 | 36 | 312 | 2.0 | 5.0 | 0.00 | 0.00 | 0.00 | 57 | 1015.7 |
| 20260505094537 | 36 | 299 | 2.0 | 5.0 | 0.00 | 0.00 | 0.00 | 57 | 1015.7 |
| 20260505094033 | 36 | 308 | 3.0 | 8.0 | 0.00 | 0.00 | 0.00 | 56 | 1015.7 |
| 20260505093040 | 36 | 316 | 2.0 | 6.0 | 0.00 | 0.00 | 0.00 | 56 | 1015.7 |
| 20260505092533 | 36 | 298 | 2.0 | 6.0 | 0.00 | 0.00 | 0.00 | 56 | 1015.6 |
| 20260505092032 | 36 | 316 | 2.0 | 6.0 | 0.00 | 0.00 | 0.00 | 56 | 1015.6 |
| 20260505091532 | 36 | 307 | 2.0 | 4.0 | 0.00 | 0.00 | 0.00 | 56 | 1015.6 |
| 20260505091035 | 36 | 311 | 2.0 | 4.0 | 0.00 | 0.00 | 0.00 | 56 | 1015.7 |
| 20260505090530 | 36 | 308 | 2.0 | 7.0 | 0.00 | 0.00 | 0.00 | 56 | 1015.6 |
| 20260505090043 | 36 | 308 | 2.0 | 7.0 | 0.00 | 0.00 | 0.00 | 55 | 1015.8 |
| 20260505085531 | 36 | 313 | 3.0 | 8.0 | 0.00 | 0.00 | 0.00 | 55 | 1015.7 |
| 20260505085032 | 36 | 313 | 2.0 | 8.0 | 0.00 | 0.00 | 0.00 | 55 | 1015.8 |
| 20260505084530 | 36 | 314 | 3.0 | 7.0 | 0.00 | 0.00 | 0.00 | 55 | 1015.7 |
| 20260505084028 | 36 | 290 | 2.0 | 5.0 | 0.00 | 0.00 | 0.00 | 55 | 1015.6 |
| 20260505083037 | 37 | 302 | 2.0 | 6.0 | 0.00 | 0.00 | 0.00 | 55 | 1015.6 |
| 20260505082533 | 37 | 309 | 3.0 | 8.0 | 0.00 | 0.00 | 0.00 | 55 | 1015.6 |